Regional Weather Roundup
Issued by NWS

Home | Current Version | Previous Version | Graphics & Text | Print | Product List | Glossary On
Versions: 1 2 3 4 5 6 7 8 9 10 11 12 13 14 15 16 17 18 19 20 21 22 23 24 25 26 27 28 29 30 31 32 33 34 35 36 37 38 39 40 41 42 43 44 45 46 47 48 49 50
000
ASUS45 KCYS 011910
RWRWY

WYOMING REGIONAL WEATHER ROUNDUP
NATIONAL WEATHER SERVICE CHEYENNE WY
100 PM MDT WED OCT 01 2014

NOTE:  "FAIR" INDICATES FEW OR NO CLOUDS BELOW 12,000 FEET
WITH NO SIGNIFICANT WEATHER AND/OR OBSTRUCTIONS TO VISIBILITY.

WYZ001-012000-
YELLOWSTONE NATIONAL PARK

CITY           SKY/WX    TMP DP  RH WIND       PRES   REMARKS
LK YELLOWSTONE   N/A     39  27  62 CALM      30.07F
W YELLOWSTONE  NOT AVBL

$$
WYZ002>013-054>058-071-098>099-012000-
NORTHERN WYOMING

CITY           SKY/WX    TMP DP  RH WIND       PRES   REMARKS
JACKSON        NOT AVBL
CODY           PTSUNNY   45  37  76 CALM      30.00F
GREYBULL       CLOUDY    55  34  45 N17       29.96S
WORLAND        LGT RAIN  50  35  56 VRB6      29.98S
SHERIDAN       CLOUDY    52  37  56 NW13      29.97S
BUFFALO        LGT RAIN  45  38  76 N17G29    29.98S
GILLETTE       CLOUDY    49  38  65 NW16      29.94F
HULETT         CLOUDY    50  37  62 NW9G16    29.94
NEWCASTLE      DRIZZLE   48  39  71 NW15      29.93

$$
WYZ014>020-022>026-101>103-012000-
CENTRAL WYOMING

CITY           SKY/WX    TMP DP  RH WIND       PRES   REMARKS
BIG PINEY      CLOUDY    45  26  47 N22G28    30.03F
PINEDALE       LGT RAIN  37  32  81 W17G23    30.03S WCI  28
DUBOIS         CLOUDY    41  25  52 NW13G22   30.00S
LANDER         CLOUDY    41  38  89 N12       30.01R
RIVERTON       RAIN      41  37  86 N13       30.01S
CASPER         LGT RAIN  43  40  89 E6        29.99S
DOUGLAS        CLOUDY    45  41  86 N9        29.98S

$$
WYZ021-027>030-104>119-012000-
SOUTHERN WYOMING

CITY           SKY/WX    TMP DP  RH WIND       PRES   REMARKS
EVANSTON       LGT RAIN  41  30  65 NW12      30.09S
KEMMERER       PTCLDY    43  30  61 W20       30.07S
FORT BRIDGER   CLOUDY    46  32  57 NW15      30.10R
ROCK SPRINGS   MOSUNNY   47  27  45 W16       30.01F
DIXON          CLOUDY    46  38  75 SW5       30.03S
RAWLINS        CLOUDY    45  29  53 W12       29.99F
SARATOGA       CLOUDY    43  32  65 NW9       30.02S
LARAMIE        CLOUDY    45  27  49 W13       29.97R
CHEYENNE       LGT RAIN  49  37  63 N17G24    29.92R
TORRINGTON     MOSUNNY   63  40  42 W8        29.86F
PINE BLUFFS    CLOUDY    59  39  47 N12       29.89F

$$


USA.gov is the U.S. government's official web portal to all federal, state and local government web resources and services.